Regional Weather Roundup
Issued by NWS State College, PA

Home | Current Version | Previous Version | Graphics & Text | Print | Product List | Glossary Off
Versions: 1 2 3 4 5 6 7 8 9 10 11 12 13 14 15 16 17 18 19 20 21 22 23 24 25 26 27 28 29 30 31 32 33 34 35 36 37 38 39 40 41 42 43 44 45 46 47 48 49 50

000
ASUS41 KCTP 302210
RWRCTP

REGIONAL WEATHER ROUNDUP
NATIONAL WEATHER SERVICE STATE COLLEGE PA
600 PM EDT THU JUL 30 2015

Note: "fair" indicates few or no clouds below 12,000 feet with no
significant weather and/or obstructions to visibility.

* = STATION THAT DOES NOT REPORT PRECIPITATION /E.G. RAIN...SNOW...ETC/
    THUNDER OR FOG.

PAZ002>004-007>009-013>016-020>023-029>032-302300-
WESTERN PENNSYLVANIA

CITY           SKY/WX    TMP DP  RH WIND       PRES   REMARKS
ERIE           SUNNY     81  59  47 W16G26    29.93S
MEADVILLE      SUNNY     81  50  33 W13G20    29.96S
FRANKLIN*      SUNNY     81  54  39 W9        29.97S
NEW CASTLE     FAIR      85  58  39 W9G16     29.96S
BEAVER COUNTY  MOSUNNY   84  55  37 W12G20    29.96S
BUTLER*        MOSUNNY   82  55  39 NW12G20   29.96F
PITTSBURGH INT MOSUNNY   86  54  33 NW17G25   29.95S
PITTSBURGH     SUNNY     83  50  31 NW9G20    29.94S
INDIANA*       PTSUNNY   82  59  44 NW7G15    29.97S
LATROBE        MOSUNNY   84  55  37 NW14      29.94S
WASHINGTON CO* NOT AVBL
$$

PAZ004>006-010>012-017>019-024>028-033>037-041-042-045-046-049>053-302300-
CENTRAL PENNSYLVANIA

CITY           SKY/WX    TMP DP  RH WIND       PRES   REMARKS
BRADFORD       SUNNY     77  53  43 W12       29.96R
DUBOIS         MOSUNNY   81  56  42 W12       29.94S
CLEARFIELD     MOSUNNY   83  56  39 W12G20    29.93R
JOHNSTOWN      SUNNY     80  54  40 W12G20    29.98R
ALTOONA        SUNNY     83  57  41 NW14      29.93R
STATE COLLEGE  MOSUNNY   82  59  44 NW13      29.90R
WILLIAMSPORT   MOSUNNY   89  56  32 W14       29.81S
SELINSGROVE    SUNNY     86  62  44 VRB5      29.84R
FT INDIANTOWN  MOSUNNY   86  67  53 W9        29.84R
CAPITAL CITY   MOSUNNY   88  62  41 NW10      29.84R
HARRISBURG     PTSUNNY   85  65  51 NW10      29.83R
YORK           MOSUNNY   84  72  67 NW3       29.85R
$$

PAZ038>040-043-044-047-048-054-055-060>062-067>071-302300-
EASTERN PENNSYLVANIA

CITY           SKY/WX    TMP DP  RH WIND       PRES   REMARKS
SCRANTON       PTSUNNY   85  61  44 NW13      29.83R
MOUNT POCONO   MOSUNNY   81  63  54 W13G20    29.87S
ALLENTOWN      MOSUNNY   84  75  74 SW10      29.81S
QUAKERTOWN*    MOCLDY    81  73  78 W6        29.84S
READING        SUNNY     84  74  71 SW10      29.82R
LANCASTER      MOSUNNY   83  75  77 SW6       29.83S
COATESVILLE    MOCLDY    77  75  94 SW5       29.87S
POTTSTOWN      PTSUNNY   79  74  84 SW6       29.85R
BLUE BELL      CLOUDY    79  73  83 W6        29.83S
DOYLESTOWN     CLOUDY    77  72  84 SW7       29.83R
WILLOW GROVE   NOT AVBL
NORTH PHILA    CLOUDY    79  71  76 SW6       29.83F
PHILADELPHIA   CLOUDY    79  74  84 SW8       29.83F
$$



USA.gov is the U.S. government's official web portal to all federal, state and local government web resources and services.